Zurück zum Katalog

STARLINK-38233

AktivKommunikationSSO
NORAD 100249·PAYLOAD·🇺🇸 United States

Gestartet Aug 8, 2026 von Vandenberg Space Force Base

Loading…

Nächste Überflüge (nächste 24 Stunden)

TLE

AktuellSource: Space-Track

Epoche: Sep 14, 2026, 14:14 UTC

1 A0249U 26181D   26257.59309366  .00231806  00000-0  15078-2 0  9999
2 A0249  97.2832 300.7897 0001748  79.8394 280.3069 15.75272105  6977

Verfolge STARLINK-38233 in Echtzeit mit AllMySat

Download on the App Store